Location: *
(32.8667°N, 13.1833°E)
Time: 02:40:26
(UTC+00:00)

Cosmos 2228 Rocket - Pass Details

Date: 18 July 2019
Orbit: 619 x 651 km, 82.5° (Epoch: 20 August)

Event Time Altitude Azimuth Distance (km) Brightness Sun altitude
Rises 20:40:01 0° 354° (N) 2,960 7.4 -24.9°
Reaches altitude 10° 20:42:16 10° 356° (N) 2,051 6.4 -25.2°
Enters shadow 20:46:21 70° 19° (NNE) 693 3.2 -25.7°
